Weather in Gilze en Rijen

Netherlands     51°33′44″N   4°54′41″E
temp.,
°C
wind,
m/s
gust,
m/s
humid.,
%
clouds,
%
prec.,
mm/h
press.,
hPa
HPBL,
m
17 april, sat
sat1723:00+5nne5107111 0.0 1028319
02:00+4nne487291 0.0 1028206
05:00+2nne387922 0.0 1027187
08:00+3nne387562 0.0 1027227
11:00+9nne56535 0.0 1027970
14:00+12nne564814 0.0 10251704
17:00+12n554831 0.0 10241702
20:00+9nne58625 0.0 1024363
18 april, sun
sun1823:00+5n38736 0.0 1025205
02:00+3nnw358617 0.0 1024101
05:00+2nnw228957 0.0 102331
08:00+4n12815 0.0 102486
11:00+10nne226141 0.0 1023545
14:00+14nne33558 0.0 10231233
17:00+14nne335797 0.3 10211180
20:00+11nne347311 0.6 102298
19 april, mon
mon1923:00+8n36885 0.0 1022124
02:00+6n359179 0.0 1022104
05:00+5nnw359589 0.0 1021110
08:00+6nnw368899 0.1 1020205
11:00+8wnw359295 1.9 1020337
14:00+10ese1181100 2.4 1019410
17:00+11s117888 0.4 1018623
20:00+10ssw118852 0.6 101816
20 april, tue
tue2023:00+7sse119410 0.0 101912
02:00+6sw12955 0.0 101811
05:00+5sw11954 0.0 101811
08:00+6sw11905 0.0 101851
11:00+11wsw22714 0.0 1018705
14:00+15w335441 0.0 10171470
17:00+14nw545864 0.1 1016869
20:00+11nw476979 0.1 1017231
21 april, wed
wed2123:00+7nw3488100 0.0 101871
02:00+6wnw2395100 0.0 101865
05:00+6wnw2597100 0.0 1018123
08:00+7nnw4995100 0.0 1019449
11:00+9n687092 0.1 1021969
14:00+12nnw67445 0.1 10211755
17:00+11nnw77465 0.0 10221687
20:00+7nnw58580 0.0 1023714